Location: Township of Marena
(38.1747°N, 99.6798°W)
Time: 03:25:51
(UTC+00:00)

Cosmos 1346 Rocket - Pass Details

Date: 26 October 2020
Orbit: 535 x 543 km, 81.2° (Epoch: 24 November)

Event Time Altitude Azimuth Distance (km) Brightness Sun altitude
Rises 01:59:36 0° 345° (NNW) 2,709 6.6 -26.7°
Reaches altitude 10° 02:01:48 10° 340° (NNW) 1,813 5.7 -27.1°
Enters shadow 02:04:04 31° 323° (NW) 980 4.4 -27.6°
